[[{"header":{"parameterUnit":"m.s-1","parameterCategory":1,"la1":30.2991,"la2":30.254,"lo1":-89.0895,"lo2":-89.0444,"dy":0.0017,"dx":0.0017,"nx":28,"ny":28,"refTime":"2025-09-01T03:00:00:Z","depth":0,"parameterNumber":2,"parameterNumberName":"U-component_of_WINDS"},"data":[0,0,0,0,0,0,0,0,0,0,0,0,0,0,0,0,0,0,0,0,0,0,0,0,0,0,0,0,0,0,0,0,0,0,0,0,0,0,0,0,0,0,0,0,0,0,0,0,0,0,0,0,0,0,0,0,0,0,-1.4561,-1.4562,0,-1.4606,-1.4607,-1.4607,-1.4556,-1.4554,-1.4552,-1.455,-1.46,-1.4603,-1.4606,0,0,0,0,0,0,0,0,0,0,0,0,0,-1.4433,-1.4436,-1.4561,-1.4562,-1.4562,-1.4606,-1.4607,-1.4607,-1.4556,-1.4554,-1.4552,-1.455,-1.4599,-1.4602,-1.4606,0,0,0,0,0,0,0,0,0,0,0,0,0,-1.4485,-1.4437,-1.4561,-1.4542,-1.4541,-1.4606,-1.4607,-1.4607,-1.4557,-1.4554,-1.4551,-1.4548,-1.4598,-1.4602,-1.4607,-1.4694,0,0,-1.4621,-1.4623,0,0,0,0,0,0,0,0,-1.4482,-1.449,-1.4544,-1.4543,-1.4542,-1.4572,-1.458,-1.4636,-1.4558,-1.4551,-1.455,-1.4547,-1.4593,-1.4598,-1.4613,-1.4696,-1.4698,-1.4621,-1.4624,-1.4626,-1.4628,0,0,0,0,0,0,0,-1.4478,-1.4487,-1.4579,-1.4545,-1.4544,-1.4532,-1.4536,-1.459,-1.4588,-1.4551,-1.4548,-1.4554,-1.4592,-1.4609,-1.4614,-1.4699,-1.4621,-1.4625,-1.4628,-1.463,-1.4854,-1.4857,0,0,0,0,0,0,-1.4477,-1.4485,-1.4578,-1.458,-1.4504,-1.4537,-1.4541,-1.4566,-1.4587,-1.4588,-1.4556,-1.4551,-1.4602,-1.4608,-1.4615,-1.4718,-1.4626,-1.4631,-1.4633,-1.4851,-1.4855,-1.4858,0,0,0,0,0,0,-1.4474,-1.4485,-1.4576,-1.4532,-1.4542,-1.4542,-1.457,-1.4568,-1.4584,-1.4591,-1.459,-1.4573,-1.46,-1.4609,-1.4674,-1.4719,-1.4633,-1.4637,-1.4847,-1.4852,-1.4857,-1.4924,0,0,0,0,0,0,-1.4471,-1.4485,-1.4517,-1.4533,-1.4545,-1.4633,-1.4573,-1.4571,-1.4592,-1.4586,-1.4607,-1.4607,-1.4598,-1.4667,-1.4679,-1.4724,-1.4641,-1.4843,-1.485,-1.4855,-1.4918,-1.493,-1.4941,0,0,0,0,0,-1.4466,-1.4536,-1.4519,-1.4531,-1.4585,-1.4636,-1.4643,-1.463,-1.4596,-1.4629,-1.4633,-1.4607,-1.4712,-1.4674,-1.4687,-1.4734,-1.4841,-1.4848,-1.4855,-1.4912,-1.4928,-1.4941,0,0,0,0,0,0,-1.4527,-1.4537,-1.4519,-1.4595,-1.4615,-1.4627,-1.4668,-1.4647,-1.4678,-1.4671,-1.4655,-1.466,-1.473,-1.4738,-1.4696,-1.4819,-1.4771,-1.4781,-1.481,-1.4825,-1.4837,-1.4833,-1.4644,0,0,0,0,0,-1.4549,-1.4588,-1.4596,-1.4662,-1.4673,-1.4669,-1.4691,-1.4679,-1.4699,-1.4708,-1.4716,-1.4738,-1.4775,-1.4801,-1.4836,-1.4919,-1.4922,-1.4957,-1.4969,-1.4978,-1.4987,-1.5031,-1.5046,-1.4882,-1.4882,-1.4881,0,0,-1.4596,-1.4606,-1.4632,-1.4674,-1.4688,-1.473,-1.4676,-1.4723,-1.4754,-1.4715,-1.4777,-1.4784,-1.4807,-1.4881,-1.4914,-1.489,-1.5033,-1.4987,-1.4995,-1.4999,-1.504,-1.5055,-1.5069,-1.4886,-1.4886,-1.4885,0,0,-1.4701,-1.4713,-1.4769,-1.4784,-1.4805,-1.4802,-1.4815,-1.483,-1.4833,-1.4894,-1.4866,-1.4903,-1.4968,-1.4985,-1.5003,-1.5114,-1.509,-1.5126,-1.5187,-1.523,-1.5243,-1.5254,-1.5293,-1.5307,-1.5134,-1.5135,-1.5135,0,-1.4756,-1.4817,-1.4801,-1.4849,-1.4869,-1.4834,-1.4891,-1.4906,-1.4938,-1.4953,-1.4925,-1.5006,-1.5019,-1.5096,-1.5123,-1.5138,-1.5153,-1.5123,-1.5242,-1.5253,-1.5264,-1.5301,-1.5316,-1.5139,-1.5138,-1.5138,-1.5137,0,-1.4884,-1.4927,-1.4969,-1.5,-1.5024,-1.5077,-1.5069,-1.5095,-1.5082,-1.5081,-1.5144,-1.5158,-1.5195,-1.5213,-1.5201,-1.5288,-1.5273,-1.5244,-1.5196,-1.5284,-1.5318,-1.5332,-1.5144,-1.5143,-1.5142,-1.5141,0,0,-1.503,-1.5049,-1.5065,-1.5078,-1.5098,-1.5131,-1.5182,-1.5217,-1.524,-1.5263,-1.5305,-1.5361,-1.5334,-1.5354,-1.5343,-1.5381,-1.5467,-1.5347,-1.5347,-1.5368,-1.5564,-1.5585,-1.5602,-1.5451,-1.5454,-1.5456,-1.5562,0,-1.5135,-1.5222,-1.5208,-1.5293,-1.5332,-1.5299,-1.5343,-1.536,-1.5361,-1.5395,-1.5397,-1.5436,-1.5398,-1.5409,-1.5445,-1.5449,-1.5506,-1.5441,-1.5491,-1.5493,-1.5486,-1.562,-1.5643,-1.5742,-1.5575,-1.5577,-1.5579,0,-1.527,-1.5297,-1.5384,-1.5397,-1.5413,-1.5453,-1.5483,-1.5516,-1.5535,-1.5533,-1.5554,-1.5536,-1.5587,-1.5538,-1.5608,-1.5564,-1.5584,-1.5589,-1.5592,-1.5597,-1.5541,-1.5628,-1.5773,-1.5788,-1.56,-1.5599,-1.5597,0,-1.5368,-1.5425,-1.5484,-1.5497,-1.5513,-1.5542,-1.555,-1.5566,-1.5588,-1.5615,-1.5628,-1.5661,-1.568,-1.5706,-1.5697,-1.5662,-1.5769,-1.5719,-1.577,-1.577,-1.5794,-1.5793,-1.5945,-1.5807,-1.5807,-1.5806,-1.5806,0,-1.5487,-1.5542,-1.5528,-1.5565,-1.5625,-1.5609,-1.567,-1.5674,-1.5689,-1.5726,-1.57,-1.5736,-1.5722,-1.5757,-1.5751,-1.581,-1.5819,-1.5819,-1.5817,-1.5821,-1.5821,-1.5834,-1.5827,-1.581,-1.5809,-1.5809,-1.5808,0,-1.5606,-1.5599,-1.5662,-1.5671,-1.5675,-1.5719,-1.5728,-1.5763,-1.5761,-1.5809,-1.5819,-1.5817,-1.5857,-1.5851,-1.5896,-1.5892,-1.5965,-1.5954,-1.5958,-1.5956,-1.6006,-1.6002,-1.6172,-1.6193,-1.6042,-1.6043,-1.6045,0,-1.5683,-1.5724,-1.5737,-1.576,-1.577,-1.5807,-1.5828,-1.5813,-1.5837,-1.5861,-1.5893,-1.593,-1.5959,-1.6024,-1.6027,-1.6061,-1.6051,-1.6108,-1.6056,-1.6059,-1.6052,-1.6049,-1.6053,-1.6119,-1.6121,-1.6122,-1.6123,0,-1.5819,-1.5813,-1.5844,-1.5874,-1.5899,-1.5923,-1.5943,-1.5963,-1.5951,-1.5978,-1.6018,-1.604,-1.6085,-1.6122,-1.6154,-1.6163,-1.6142,-1.6139,-1.6153,-1.6158,-1.6158,-1.6159,-1.5986,-1.6136,-1.6135,-1.6134,-1.6133,-1.6132,-1.5919,-1.5954,-1.5968,-1.6003,-1.6017,-1.6036,-1.6069,-1.6071,-1.6103,-1.6138,-1.6127,-1.6172,-1.619,-1.6229,-1.6242,-1.6277,-1.6256,-1.6276,-1.6281,-1.6286,-1.6292,-1.6153,-1.6283,-1.6283,-1.6283,-1.6282,-1.6282,0,-1.6054,-1.6061,-1.6094,-1.6122,-1.615,-1.6125,-1.6147,-1.6172,-1.6211,-1.6229,-1.6257,-1.6302,-1.6338,-1.6343,-1.6377,-1.6405,-1.6395,-1.6414,-1.6412,-1.6414,-1.6309,-1.6294,-1.6421,-1.6421,-1.6421,-1.6421,-1.6421,-1.6421,-1.6128,-1.6184,-1.618,-1.6244,-1.6251,-1.6293,-1.6308,-1.6325,-1.6339,-1.639,-1.6419,-1.6422,-1.6434,-1.6469,-1.65,-1.6501,-1.6515,-1.6537,-1.6534,-1.6436,-1.6422,-1.6409,-1.6394,-1.6541,-1.6541,-1.6637,-1.6638,-1.6639]},{"header":{"parameterUnit":"m.s-1","parameterCategory":1,"la1":30.2991,"la2":30.254,"lo1":-89.0895,"lo2":-89.0444,"dy":0.0017,"dx":0.0017,"nx":28,"ny":28,"refTime":"2025-09-01T03:00:00:Z","depth":0,"parameterNumber":3,"parameterNumberName":"V-component_of_WINDS"},"data":[0,0,0,0,0,0,0,0,0,0,0,0,0,0,0,0,0,0,0,0,0,0,0,0,0,0,0,0,0,0,0,0,0,0,0,0,0,0,0,0,0,0,0,0,0,0,0,0,0,0,0,0,0,0,0,0,0,0,0.5662,0.5661,0,0.5596,0.5595,0.5594,0.5548,0.5548,0.5547,0.5547,0.5475,0.5474,0.5472,0,0,0,0,0,0,0,0,0,0,0,0,0,0.5743,0.5742,0.5662,0.5661,0.566,0.5596,0.5595,0.5594,0.5548,0.5548,0.5547,0.5547,0.5476,0.5474,0.5472,0,0,0,0,0,0,0,0,0,0,0,0,0,0.5696,0.5741,0.5662,0.563,0.5626,0.5596,0.5595,0.5594,0.5548,0.5548,0.5547,0.5547,0.5476,0.5474,0.5472,0.5467,0,0,0.5464,0.5463,0,0,0,0,0,0,0,0,0.5698,0.5693,0.5635,0.5632,0.5628,0.558,0.5597,0.5551,0.5548,0.5578,0.5547,0.5546,0.551,0.5505,0.5494,0.5464,0.5461,0.5464,0.5463,0.5462,0.5461,0,0,0,0,0,0,0,0.5702,0.5695,0.5635,0.5634,0.563,0.5617,0.5609,0.5588,0.5547,0.5575,0.5572,0.5565,0.5508,0.5496,0.5492,0.546,0.5464,0.5462,0.5461,0.546,0.5422,0.5422,0,0,0,0,0,0,0.5711,0.5698,0.5638,0.5634,0.5663,0.5616,0.5608,0.5596,0.5548,0.554,0.5565,0.5563,0.55,0.5494,0.5489,0.548,0.5462,0.5459,0.5458,0.5422,0.5422,0.5423,0,0,0,0,0,0,0.5713,0.5706,0.564,0.5665,0.5656,0.5615,0.5602,0.5595,0.5583,0.554,0.5532,0.5561,0.55,0.5492,0.5473,0.5477,0.5458,0.5456,0.5421,0.5422,0.5422,0.5462,0,0,0,0,0,0,0.5715,0.5707,0.5706,0.5665,0.5655,0.5627,0.5602,0.5594,0.5579,0.5575,0.5534,0.5526,0.5499,0.5477,0.5471,0.5473,0.5454,0.542,0.5421,0.5422,0.546,0.5464,0.5467,0,0,0,0,0,0.5718,0.5719,0.5706,0.5699,0.5653,0.5628,0.5621,0.559,0.558,0.5577,0.555,0.5528,0.5478,0.5475,0.5468,0.547,0.542,0.5421,0.5422,0.5459,0.5463,0.5467,0,0,0,0,0,0,0.5759,0.5713,0.5698,0.5686,0.5661,0.562,0.5616,0.5596,0.5573,0.557,0.5532,0.5523,0.5507,0.5486,0.5485,0.5462,0.5446,0.5445,0.5476,0.548,0.5484,0.5489,0.5452,0,0,0,0,0,0.5767,0.5752,0.5712,0.5705,0.5694,0.5657,0.5645,0.5624,0.5596,0.5585,0.5556,0.5528,0.5506,0.5492,0.5469,0.5457,0.5447,0.5455,0.5458,0.5461,0.5461,0.5452,0.5454,0.5426,0.5426,0.5426,0,0,0.5783,0.5756,0.5748,0.5713,0.5691,0.5674,0.5649,0.5633,0.5619,0.5581,0.5562,0.554,0.5506,0.5491,0.5482,0.5473,0.5467,0.5463,0.5465,0.5463,0.5453,0.5456,0.5458,0.5426,0.5426,0.5426,0,0,0.5803,0.5782,0.5773,0.5752,0.572,0.5696,0.5694,0.5656,0.564,0.562,0.5591,0.5574,0.5537,0.5514,0.5498,0.5509,0.5487,0.5503,0.552,0.5512,0.5514,0.5516,0.5519,0.552,0.5503,0.5503,0.5503,0,0.5826,0.5802,0.5771,0.5757,0.5741,0.5708,0.5698,0.5678,0.564,0.5629,0.562,0.5572,0.5547,0.5525,0.5528,0.5516,0.5512,0.5507,0.5517,0.5518,0.5519,0.5521,0.5523,0.5505,0.5505,0.5504,0.5504,0,0.5832,0.5815,0.5812,0.5777,0.5761,0.5749,0.5715,0.5702,0.5682,0.5659,0.5638,0.5607,0.5577,0.557,0.555,0.5545,0.554,0.5524,0.5507,0.5525,0.5526,0.5527,0.5508,0.5507,0.5506,0.5506,0,0,0.5875,0.5824,0.5823,0.5806,0.5768,0.5754,0.574,0.5712,0.5701,0.5676,0.5662,0.5632,0.5617,0.5598,0.5575,0.5567,0.5577,0.5552,0.5551,0.5557,0.5568,0.5579,0.5581,0.5563,0.5563,0.5563,0.557,0,0.5889,0.5863,0.5835,0.5818,0.5802,0.577,0.5757,0.5731,0.5709,0.569,0.5665,0.5643,0.5626,0.5614,0.5606,0.5578,0.5578,0.5577,0.5547,0.5547,0.5556,0.5582,0.5594,0.5602,0.557,0.5571,0.5571,0,0.5901,0.5879,0.5861,0.5824,0.5816,0.5805,0.5777,0.576,0.573,0.5714,0.5693,0.5669,0.5651,0.5636,0.561,0.5609,0.5595,0.558,0.5579,0.5574,0.5559,0.5576,0.5604,0.5605,0.5571,0.5571,0.5571,0,0.5934,0.5899,0.5883,0.587,0.5827,0.582,0.5801,0.5771,0.5756,0.573,0.572,0.5692,0.5677,0.5656,0.5624,0.5616,0.56,0.5583,0.5584,0.5585,0.5582,0.5582,0.5607,0.5575,0.5575,0.5575,0.5575,0,0.5951,0.5941,0.5897,0.5888,0.5875,0.5842,0.583,0.5808,0.5781,0.5766,0.5736,0.5721,0.5681,0.5661,0.5636,0.5617,0.561,0.5596,0.5589,0.5598,0.5599,0.5587,0.5585,0.5575,0.5575,0.5575,0.5575,0,0.5985,0.5955,0.5936,0.5897,0.5887,0.5879,0.5845,0.5833,0.5809,0.579,0.5783,0.5745,0.572,0.5687,0.5651,0.5634,0.5618,0.5608,0.5629,0.5624,0.5627,0.5627,0.5644,0.5644,0.5614,0.5614,0.5614,0,0.5997,0.5989,0.5949,0.5938,0.592,0.5902,0.5886,0.5853,0.5838,0.5802,0.5795,0.5768,0.5745,0.5707,0.5675,0.5647,0.5635,0.5643,0.5631,0.564,0.5634,0.5634,0.5633,0.5646,0.5646,0.5647,0.5647,0,0.6023,0.6008,0.5988,0.5963,0.5945,0.5923,0.59,0.5891,0.5853,0.5837,0.5812,0.5794,0.5758,0.5732,0.57,0.5678,0.5656,0.5652,0.565,0.5659,0.567,0.5663,0.5636,0.5651,0.5651,0.565,0.565,0.565,0.6045,0.6036,0.6007,0.5985,0.5964,0.5942,0.593,0.5905,0.5884,0.5853,0.5834,0.581,0.5778,0.5734,0.5713,0.5693,0.5684,0.5682,0.5681,0.5681,0.5684,0.5675,0.5687,0.5687,0.5686,0.5686,0.5686,0,0.6068,0.6047,0.6028,0.5996,0.5979,0.5961,0.5933,0.5919,0.5899,0.5872,0.5851,0.5821,0.5795,0.5761,0.5732,0.5722,0.5711,0.5715,0.5715,0.571,0.5694,0.5697,0.5725,0.5725,0.5725,0.5725,0.5725,0.5725,0.6077,0.6061,0.6043,0.6015,0.5994,0.5971,0.5957,0.5936,0.5915,0.5884,0.5863,0.5842,0.5812,0.578,0.5755,0.5745,0.5735,0.5743,0.573,0.5715,0.5712,0.5708,0.5711,0.5742,0.5742,0.5748,0.5748,0.5749]}]]